WX4HP-13 Weather Reports


time (UTC)temp
F
wind
direction
speed
knots
gust
knots
rain 1hr
in
rain 24hr
in
rain mn
in
humidity
%
barometer
mb
20260504150956 69 237 1.7 6.1 0.00 0.00 0.00 50 1016.3
20260504150457 68 262 0.9 3.5 0.00 0.00 0.00 50 1016.3
20260504141028 64 248 1.7 4.3 0.00 0.00 0.00 54 1017.0
20260504140957 64 248 1.7 4.3 0.00 0.00 0.00 54 1017.0
20260504140457 64 244 0.9 5.2 0.00 0.00 0.00 57 1017.0
20260504130456 59 295 0.0 0.9 0.00 0.00 0.00 62 1017.4
20260504100456 41 0 0.0 0.0 0.00 0.00 0.00 96 1017.9
20260504081956 42 0 0.0 0.0 0.00 0.00 0.00 96 1017.6
20260504081456 42 0 0.0 0.0 0.00 0.00 0.00 96 1017.6
20260504080956 42 0 0.0 0.0 0.00 0.00 0.00 95 1017.7
20260504080455 42 0 0.0 0.0 0.00 0.00 0.00 95 1017.7
20260504050457 44 0 0.0 0.0 0.00 0.00 0.00 94 1018.7
20260504045957 44 0 0.0 0.0 0.00 0.00 0.00 93 1018.7
20260504045457 44 0 0.0 0.0 0.00 0.00 0.00 93 1018.7
20260504044957 44 0 0.0 0.0 0.00 0.00 0.00 93 1018.7
20260504044457 44 0 0.0 0.0 0.00 0.00 0.00 93 1018.8
20260504043956 44 0 0.0 0.0 0.00 0.00 0.00 93 1018.7
20260504043457 44 0 0.0 0.0 0.00 0.00 0.00 93 1018.8
20260504042956 44 0 0.0 0.0 0.00 0.00 0.00 93 1018.8
20260504042455 44 0 0.0 0.0 0.00 0.00 0.00 92 1018.8
20260504041956 45 0 0.0 0.0 0.00 0.00 0.00 92 1018.9
20260504041456 45 0 0.0 0.0 0.00 0.00 0.00 92 1018.9
20260504041107 45 0 0.0 0.0 0.00 0.00 0.00 92 1019.0
20260504040957 45 0 0.0 0.0 0.00 0.00 0.00 92 1019.0
20260504040457 45 0 0.0 0.0 0.00 0.00 0.00 92 1019.0
20260504040432 45 0 0.0 0.0 0.00 0.00 0.00 91 1019.1
20260504035955 45 0 0.0 0.0 0.00 0.00 0.00 91 1019.1
20260504035457 45 0 0.0 0.0 0.00 0.00 0.00 91 1019.0
20260504034957 45 0 0.0 0.0 0.00 0.00 0.00 91 1019.2
20260504034457 46 0 0.0 0.0 0.00 0.00 0.00 91 1019.1
20260504033956 46 0 0.0 0.0 0.00 0.00 0.00 91 1019.2
20260504033457 46 0 0.0 0.0 0.00 0.00 0.00 92 1019.3
20260504032958 46 0 0.0 0.0 0.00 0.00 0.00 91 1019.3
20260504032457 46 0 0.0 0.0 0.00 0.00 0.00 91 1019.5
20260504031956 46 0 0.0 0.0 0.00 0.00 0.00 91 1019.5
20260504031457 46 0 0.0 0.0 0.00 0.00 0.00 90 1019.5
20260504030956 46 0 0.0 0.0 0.00 0.00 0.00 90 1019.5
20260504030457 46 0 0.0 0.0 0.00 0.00 0.00 89 1019.3
20260504025957 46 0 0.0 0.0 0.00 0.00 0.00 89 1019.3
20260504025457 46 0 0.0 0.0 0.00 0.00 0.00 88 1019.2
20260504024956 46 0 0.0 0.0 0.00 0.00 0.00 87 1019.0
20260504024455 47 0 0.0 0.0 0.00 0.00 0.00 86 1018.9
20260504023957 0 0 0.0 0.0 0.00 0.00 0.00 100
20260504023456 0 0 0.0 0.0 0.00 0.00 0.00 100
20260504022956 0 0 0.0 0.0 0.00 0.00 0.00 100
20260504022456 48 295 0.0 0.9 0.00 0.00 0.00 84 1018.7
20260504021956 48 0 0.0 0.0 0.00 0.00 0.00 83 1018.6
20260504021457 48 0 0.0 0.0 0.00 0.00 0.00 82 1018.5
20260504020955 48 0 0.0 0.0 0.00 0.00 0.00 80 1018.5
20260504020456 48 0 0.0 0.0 0.00 0.00 0.00 79 1018.4
20260504015955 49 0 0.0 0.0 0.00 0.00 0.00 80 1018.4
20260504015455 50 0 0.0 0.0 0.00 0.00 0.00 80 1018.3
20260504014455 50 0 0.0 0.0 0.00 0.00 0.00 73 1018.1
20260504013956 50 0 0.0 0.0 0.00 0.00 0.00 72 1018.2
20260504013455 51 0 0.0 0.0 0.00 0.00 0.00 71 1018.0
20260504012955 51 0 0.0 0.0 0.00 0.00 0.00 72 1017.9
20260504012456 52 0 0.0 0.0 0.00 0.00 0.00 68 1018.0
20260504011955 52 0 0.0 0.0 0.00 0.00 0.00 66 1017.9
20260504011456 52 0 0.0 0.0 0.00 0.00 0.00 65 1017.8
20260504010956 53 0 0.0 0.0 0.00 0.00 0.00 65 1017.8
20260504010457 53 0 0.0 0.0 0.00 0.00 0.00 66 1017.9
20260504005955 53 0 0.0 0.0 0.00 0.00 0.00 67 1017.8
20260504005457 54 0 0.0 0.0 0.00 0.00 0.00 68 1017.7
20260504004956 55 0 0.0 0.0 0.00 0.00 0.00 67 1017.5
20260504004644 55 0 0.0 0.0 0.00 0.00 0.00 63 1017.6
20260504004456 55 0 0.0 0.0 0.00 0.00 0.00 63 1017.6
20260504003958 56 0 0.0 0.0 0.00 0.00 0.00 62 1017.4
20260504003455 57 0 0.0 0.0 0.00 0.00 0.00 59 1017.4
20260504002955 57 0 0.0 0.0 0.00 0.00 0.00 55 1017.4
20260504002456 57 0 0.0 0.0 0.00 0.00 0.00 55 1017.3
20260504001957 58 0 0.0 0.0 0.00 0.00 0.00 55 1017.2
20260504001456 59 0 0.0 0.0 0.00 0.00 0.00 55 1017.2
20260504000955 60 0 0.0 0.0 0.00 0.00 0.00 54 1017.3
20260504000455 60 0 0.0 0.0 0.00 0.00 0.00 52 1017.1
20260503235955 62 0 0.0 0.0 0.00 0.00 0.00 48 1017.0
20260503235455 62 294 0.0 1.7 0.00 0.00 0.00 45 1016.9
20260503234956 63 0 0.0 0.0 0.00 0.00 0.00 43 1017.1
20260503234456 63 297 0.0 1.7 0.00 0.00 0.00 42 1017.0
20260503233957 64 282 0.0 2.6 0.00 0.00 0.00 42 1016.9
20260503233455 64 265 0.0 0.9 0.00 0.00 0.00 42 1017.0
20260503232956 64 222 0.0 0.9 0.00 0.00 0.00 41 1016.9
20260503232458 64 239 0.0 1.7 0.00 0.00 0.00 43 1017.0
20260503231956 65 294 0.0 2.6 0.00 0.00 0.00 40 1017.1
20260503231457 65 250 0.0 1.7 0.00 0.00 0.00 40 1016.9
20260503230956 65 260 0.9 3.5 0.00 0.00 0.00 38 1016.9
20260503230455 66 273 0.9 4.3 0.00 0.00 0.00 37 1016.8
20260503225955 67 264 0.9 3.5 0.00 0.00 0.00 36 1017.0
20260503225553 67 283 0.9 4.3 0.00 0.00 0.00 36 1016.8
20260503225455 67 283 0.9 4.3 0.00 0.00 0.00 36 1016.8
20260503224955 67 286 0.9 3.5 0.00 0.00 0.00 35 1016.9
20260503224455 67 65 0.0 1.7 0.00 0.00 0.00 36 1016.8
20260503223955 67 299 0.9 3.5 0.00 0.00 0.00 34 1017.0
20260503223455 67 317 1.7 5.2 0.00 0.00 0.00 33 1017.0
20260503222955 68 281 1.7 4.3 0.00 0.00 0.00 34 1017.0
20260503222455 68 301 0.9 4.3 0.00 0.00 0.00 33 1017.0
20260503221955 68 257 0.9 3.5 0.00 0.00 0.00 34 1017.0
20260503221455 68 312 1.7 5.2 0.00 0.00 0.00 34 1017.2
20260503220955 68 259 0.0 4.3 0.00 0.00 0.00 35 1017.2
20260503220455 67 247 2.6 6.1 0.00 0.00 0.00 34 1017.2
20260503215955 67 250 2.6 5.2 0.00 0.00 0.00 33 1017.2
20260503215456 67 259 3.5 7.8 0.00 0.00 0.00 33 1017.4
20260503214956 68 258 4.3 6.1 0.00 0.00 0.00 33 1017.3
20260503214455 68 250 1.7 4.3 0.00 0.00 0.00 34 1017.2
20260503213956 69 254 1.7 7.8 0.00 0.00 0.00 34 1017.3
20260503213456 69 260 1.7 5.2 0.00 0.00 0.00 34 1017.4
20260503212955 68 274 0.9 3.5 0.00 0.00 0.00 35 1017.4
20260503212454 68 256 1.7 5.2 0.00 0.00 0.00 35 1017.7
20260503211956 67 306 1.7 6.1 0.00 0.00 0.00 33 1017.6
20260503211456 68 293 2.6 7.8 0.00 0.00 0.00 33 1017.7
20260503210954 68 245 0.9 3.5 0.00 0.00 0.00 36 1017.7
20260503210455 68 265 1.7 5.2 0.00 0.00 0.00 36 1017.8
20260503205956 68 267 2.6 6.1 0.00 0.00 0.00 35 1017.7
20260503205455 68 249 0.9 4.3 0.00 0.00 0.00 35 1017.9
20260503204954 67 250 0.9 5.2 0.00 0.00 0.00 34 1018.0
20260503204456 67 261 3.5 7.8 0.00 0.00 0.00 33 1018.2
20260503203956 67 244 2.6 7.8 0.00 0.00 0.00 35 1018.1
20260503203455 68 241 3.5 7.8 0.00 0.00 0.00 32 1018.2
20260503202955 68 254 2.6 6.1 0.00 0.00 0.00 35 1018.2
20260503202455 68 249 1.7 6.1 0.00 0.00 0.00 35 1018.3
20260503201955 68 277 1.7 3.5 0.00 0.00 0.00 34 1018.3
20260503201454 67 257 2.6 9.6 0.00 0.00 0.00 34 1018.4
20260503200955 68 259 3.5 10.4 0.00 0.00 0.00 35 1018.5
20260503200456 68 258 2.6 7.8 0.00 0.00 0.00 36 1018.6
20260503195956 68 277 0.9 3.5 0.00 0.00 0.00 37 1018.8
20260503195458 68 255 2.6 6.1 0.00 0.00 0.00 38 1018.9
20260503194957 68 258 3.5 7.8 0.00 0.00 0.00 37 1019.0
20260503194457 68 269 1.7 8.7 0.00 0.00 0.00 37 1018.9
20260503193456 67 256 1.7 5.2 0.00 0.00 0.00 39 1019.2
20260503192955 67 267 1.7 5.2 0.00 0.00 0.00 39 1019.4
20260503192456 67 257 2.6 6.1 0.00 0.00 0.00 38 1019.5
20260503191956 66 261 1.7 3.5 0.00 0.00 0.00 41 1019.6
20260503191457 66 287 1.7 4.3 0.00 0.00 0.00 40 1019.7
20260503190957 67 267 1.7 3.5 0.00 0.00 0.00 42 1019.7
20260503190457 67 264 2.6 6.1 0.00 0.00 0.00 41 1019.7
20260503185955 66 280 0.9 3.5 0.00 0.00 0.00 41 1019.8
20260503185457 66 278 0.9 2.6 0.00 0.00 0.00 42 1019.9
20260503184957 66 246 1.7 4.3 0.00 0.00 0.00 45 1020.1
20260503184457 65 266 2.6 5.2 0.00 0.00 0.00 43 1020.2
20260503183956 65 255 1.7 4.3 0.00 0.00 0.00 38 1020.3
20260503183603 65 252 0.9 2.6 0.00 0.00 0.00 38 1020.3
20260503183457 65 252 0.9 2.6 0.00 0.00 0.00 38 1020.3
20260503182957 65 240 2.6 6.1 0.00 0.00 0.00 40 1020.3
20260503182500 65 253 2.6 4.3 0.00 0.00 0.00 38 1020.3
20260503181957 65 258 1.7 4.3 0.00 0.00 0.00 41 1020.4
20260503181455 65 298 1.7 4.3 0.00 0.00 0.00 41 1020.3
20260503180956 64 207 0.9 3.5 0.00 0.00 0.00 44 1020.5
20260503180456 64 30 1.7 3.5 0.00 0.00 0.00 42 1020.5
20260503175955 65 283 1.7 4.3 0.00 0.00 0.00 41 1020.6
20260503175459 65 256 0.9 3.5 0.00 0.00 0.00 43 1020.7
20260503174957 64 267 0.9 4.3 0.00 0.00 0.00 45 1020.8
20260503174458 63 253 2.6 5.2 0.00 0.00 0.00 44 1020.9
20260503173956 63 274 1.7 5.2 0.00 0.00 0.00 44 1020.8
20260503173457 62 245 1.7 4.3 0.00 0.00 0.00 45 1021.0
20260503172956 62 110 1.7 4.3 0.00 0.00 0.00 44 1021.0
20260503172455 62 246 1.7 4.3 0.00 0.00 0.00 42 1021.2
20260503171956 62 245 1.7 5.2 0.00 0.00 0.00 45 1021.2
20260503171456 63 343 1.7 6.1 0.00 0.00 0.00 44 1021.1
20260503170955 62 22 0.9 4.3 0.00 0.00 0.00 44 1021.2
20260503170455 62 317 1.7 4.3 0.00 0.00 0.00 43 1021.2